Skip to main content
JAPN logo

JAPN · Horizon Kinetics Japan Owner Operator ETF ETF

Alerts for JAPN
$25.92 +0.32 (+1.23%) At close · Sep 4

Daily short-sale volume published by FINRA from its trade-reporting facilities. It measures how many shares were sold short each day as a share of total volume — a daily flow, not the total outstanding short position.

Short Volume

Date Short Volume Short Exempt Total Volume Short %
2026-09-04 136 0 914 14.9%
2026-09-03 1,500 0 8,159 18.4%
2026-09-02 1,032 0 1,818 56.8%
2026-09-01 203 0 1,066 19.0%
2026-08-31 30 0 806 3.7%
2026-08-28 2 0 14 14.8%
2026-08-27 395 0 3,310 11.9%
2026-08-26 351 0 686 51.1%
2026-08-25 10 0 1,531 0.7%
2026-08-24 220 0 244 90.3%
2026-08-21 289 0 3,311 8.7%
2026-08-20 11 0 793 1.4%
2026-08-19 500 0 1,523 32.8%
2026-08-17 13 0 848 1.5%
2026-08-14 70 0 1,232 5.7%
2026-08-12 1,600 0 5,200 30.8%
2026-08-10 42 0 1,222 3.4%
2026-08-07 500 0 1,053 47.5%
2026-08-06 202 0 7,714 2.6%
2026-08-05 3 0 147 2.0%
2026-08-03 136 0 427 31.9%
2026-07-31 25 0 142 17.5%
2026-07-30 971 0 8,772 11.1%
2026-07-28 84 0 3,855 2.2%
2026-07-27 158 0 3,706 4.3%
2026-07-20 100 0 2,390 4.2%
2026-07-17 200 0 1,073 18.6%
2026-07-16 1 0 2,488 0.0%
2026-07-15 1 0 228 0.4%
2026-07-14 55 0 256 21.5%
2026-07-09 2,402 0 3,581 67.1%
2026-07-07 21 0 2,028 1.0%
2026-07-06 55 0 646 8.5%
2026-06-30 106 0 3,845 2.8%
2026-06-29 1,203 0 3,518 34.2%
2026-06-26 21 0 2,343 0.9%
2026-06-25 100 0 3,589 2.8%
2026-06-23 4 0 6,368 0.1%
2026-06-18 52 0 1,339 3.9%
2026-06-17 37 0 2,226 1.7%
2026-06-15 308 0 2,172 14.2%
2026-06-12 325 0 1,316 24.7%
2026-06-11 2 0 762 0.3%
2026-06-10 50 0 3,053 1.6%
2026-06-05 255 0 1,359 18.8%
Showing 1–45 of 45 days